Location: Newark
(50.3393°N, 6.5884°E)
Time: 10:24:09
(UTC+00:00)

Envisat - Visible Passes

Search period start: 17 October 2019 00:00
Search period end: 27 October 2019 00:00
Orbit: 764 x 766 km, 98.1° (Epoch: 17 October)

Date Brightness Start Highest point End Pass type
(mag) Time Alt. Az. Time Alt. Az. Time Alt. Az.
17 Oct 3.4 17:43:51 10° S 17:48:54 67° WSW 17:54:00 10° NNW visible
17 Oct 6.4 19:28:31 10° W 19:28:55 10° W 19:29:20 10° WNW visible
18 Oct 3.0 17:07:08 10° SSE 17:12:09 63° ENE 17:17:12 10° N visible
18 Oct 5.6 18:47:48 10° SW 18:51:37 21° W 18:55:27 10° NW visible
19 Oct 6.2 05:12:28 10° NE 05:15:28 15° E 05:18:26 10° ESE visible
19 Oct 4.4 18:09:44 10° SSW 18:14:31 41° W 18:19:21 10° NNW visible
20 Oct 3.1 17:32:32 10° SSE 17:37:38 82° WSW 17:42:45 10° NNW visible
20 Oct 6.1 19:15:14 10° WSW 19:17:29 13° W 19:19:44 10° WNW visible
21 Oct 3.2 16:56:01 10° SE 17:00:55 52° ENE 17:05:51 10° N visible
21 Oct 5.2 18:36:02 10° SSW 18:40:14 26° W 18:44:28 10° NW visible
22 Oct 6.4 05:01:55 10° ENE 05:04:02 12° E 05:06:09 10° ESE visible
22 Oct 4.0 17:58:16 10° S 18:03:12 50° W 18:08:10 10° NNW visible
23 Oct 3.0 17:21:17 10° SSE 17:26:22 82° ENE 17:31:29 10° NNW visible
23 Oct 5.9 19:02:58 10° SW 19:06:03 16° W 19:09:07 10° NW visible
24 Oct 6.0 05:26:07 10° NE 05:29:54 21° E 05:33:39 10° SE visible
24 Oct 4.9 18:24:22 10° SSW 18:28:52 31° W 18:33:23 10° NNW visible
25 Oct 3.5 17:46:52 10° S 17:51:53 62° WSW 17:56:57 10° NNW visible
26 Oct 3.0 17:10:05 10° SSE 17:15:06 68° ENE 17:20:11 10° N visible
26 Oct 5.6 18:51:00 10° SW 18:54:38 20° W 18:58:18 10° NW visible
